This is the latest recevied weather packets stored in our database for station/object K5BOU. If no packets are shown the sender has not sent any weather packets the latest 10 day(s).
| Time | Temp. | Humidity | Pressure | Rain* | Wind** | Luminosity | Snow |
|---|---|---|---|---|---|---|---|
| 1787851702 | 32.78° C | 73% | 1013.9 hPa | 0 mm | - | 504 W/m² | - |
| 1787851402 | 32.78° C | 73% | 1013.6 hPa | 0 mm | - | 894 W/m² | - |
| 1787851097 | 32.78° C | 71% | 1013.7 hPa | 0 mm | - | 878 W/m² | - |
| 1787850793 | 31.67° C | 76% | 1013.5 hPa | 0 mm | - | 900 W/m² | - |
| 1787850489 | 31.11° C | 76% | 1013.7 hPa | 0 mm | - | 316 W/m² | - |
| 1787850184 | 31.11° C | 74% | 1013.7 hPa | 0 mm | - | 284 W/m² | - |
| 1787849878 | 31.11° C | 76% | 1013.6 hPa | 0 mm | - | 301 W/m² | - |
| 1787849573 | 31.11° C | 76% | 1013.8 hPa | 0 mm | - | 281 W/m² | - |
| 1787849272 | 30.56° C | 76% | 1013.7 hPa | 0 mm | - | 268 W/m² | - |
| 1787848971 | 30.56° C | 76% | 1013.7 hPa | 0 mm | - | 249 W/m² | - |
| 1787848666 | 30.56° C | 76% | 1013.6 hPa | 0 mm | - | 236 W/m² | - |
| 1787848361 | 30.56° C | 79% | 1014 hPa | 0 mm | - | 220 W/m² | - |
| 1787848056 | 30.56° C | 79% | 1013.8 hPa | 0 mm | - | 208 W/m² | - |
| 1787847755 | 30° C | 77% | 1014.1 hPa | 0 mm | - | 209 W/m² | - |
| 1787847450 | 30° C | 77% | 1014.1 hPa | 0 mm | - | 205 W/m² | - |
| 1787847146 | 30° C | 78% | 1014 hPa | 0 mm | - | 214 W/m² | - |
| 1787846841 | 30° C | 78% | 1013.9 hPa | 0 mm | - | 217 W/m² | - |
| 1787846536 | 30° C | 77% | 1014.1 hPa | 0 mm | - | 227 W/m² | - |
| 1787846232 | 30° C | 77% | 1014.2 hPa | 0 mm | - | 236 W/m² | - |
| 1787845928 | 30° C | 79% | 1014.1 hPa | 0 mm | - | 261 W/m² | - |
| 1787845623 | 30° C | 80% | 1014.1 hPa | 0 mm | - | 254 W/m² | - |
| 1787845317 | 30° C | 79% | 1014.4 hPa | 0 mm | - | 224 W/m² | - |
| 1787845013 | 30° C | 81% | 1014.2 hPa | 0 mm | - | 203 W/m² | - |
| 1787844708 | 30° C | 81% | 1014.2 hPa | 0 mm | - | 209 W/m² | - |
| 1787844407 | 30° C | 81% | 1014.2 hPa | 0 mm | - | 226 W/m² | - |
* Rain latest hour (hover to see other rain measurements)
** Current wind speed in m/s (hover to see current wind gust speed)